[[{"header":{"parameterUnit":"m.s-1","parameterCategory":1,"la1":30.2991,"la2":30.254,"lo1":-89.0895,"lo2":-89.0444,"dy":0.0017,"dx":0.0017,"nx":28,"ny":28,"refTime":"2024-08-13T03:00:00:Z","depth":0,"parameterNumber":2,"parameterNumberName":"U-component_of_WINDS"},"data":[0,0,0,0,0,0,0,0,0,0,0,0,0,0,0,0,0,0,0,0,0,0,0,0,0,0,0,0,0,0,0,0,0,0,0,0,0,0,0,0,0,0,0,0,0,0,0,0,0,0,0,0,0,0,0,0,0,0,2.5993,2.5994,0,2.614,2.6142,2.6144,2.6163,2.6162,2.6161,2.6159,2.6313,2.6318,2.6323,0,0,0,0,0,0,0,0,0,0,0,0,0,2.5729,2.5734,2.5992,2.5994,2.5996,2.614,2.6142,2.6144,2.6164,2.6162,2.616,2.6159,2.6311,2.6317,2.6324,0,0,0,0,0,0,0,0,0,0,0,0,0,2.5857,2.5736,2.5992,2.6023,2.6027,2.6139,2.6142,2.6144,2.6164,2.6162,2.616,2.6158,2.6309,2.6316,2.6324,2.6416,0,0,2.6349,2.6353,0,0,0,0,0,0,0,0,2.585,2.5867,2.6017,2.6021,2.6026,2.6131,2.6105,2.6236,2.6165,2.6112,2.6159,2.6157,2.6254,2.6266,2.6299,2.6423,2.643,2.635,2.6355,2.6358,2.6361,0,0,0,0,0,0,0,2.5841,2.586,2.6051,2.6019,2.6025,2.603,2.6046,2.613,2.6193,2.6117,2.6118,2.6136,2.6256,2.6291,2.6303,2.6432,2.635,2.6357,2.6362,2.6365,2.664,2.6642,0,0,0,0,0,0,2.5826,2.5853,2.6046,2.6055,2.5931,2.6037,2.6055,2.61,2.6192,2.6204,2.6137,2.6136,2.6278,2.6293,2.6308,2.6421,2.6358,2.6366,2.637,2.6637,2.664,2.6643,0,0,0,0,0,0,2.582,2.5843,2.604,2.5955,2.598,2.6044,2.6094,2.6104,2.6138,2.6208,2.6219,2.6161,2.6277,2.6297,2.6389,2.6426,2.6369,2.6377,2.6634,2.6638,2.6641,2.6647,0,0,0,0,0,0,2.5813,2.5841,2.5876,2.5955,2.5985,2.6118,2.6096,2.6108,2.6152,2.6152,2.6233,2.6245,2.6277,2.6377,2.6397,2.6436,2.6383,2.6631,2.6636,2.664,2.6644,2.6651,2.6657,0,0,0,0,0,2.5803,2.5872,2.5878,2.5901,2.603,2.612,2.6137,2.6172,2.6155,2.6191,2.6235,2.6242,2.6419,2.6386,2.6409,2.6451,2.6629,2.6635,2.664,2.6641,2.6649,2.6656,0,0,0,0,0,0,2.5796,2.5883,2.589,2.5987,2.6046,2.6123,2.6169,2.618,2.6246,2.6243,2.6284,2.6303,2.6393,2.6432,2.6393,2.6545,2.6523,2.6533,2.6516,2.6524,2.653,2.6518,2.639,0,0,0,0,0,2.5806,2.5871,2.5944,2.6023,2.6052,2.6106,2.6146,2.6168,2.6232,2.6257,2.6308,2.637,2.6439,2.6484,2.6552,2.6651,2.6668,2.6691,2.6697,2.6702,2.671,2.6764,2.6775,2.6661,2.6661,2.6661,0,0,2.5826,2.5882,2.5921,2.6023,2.6071,2.6138,2.6126,2.6198,2.6249,2.6268,2.6357,2.6398,2.6469,2.6565,2.6609,2.66,2.6746,2.6709,2.6712,2.6718,2.6771,2.6782,2.6791,2.6665,2.6664,2.6663,0,0,2.5898,2.5947,2.6017,2.6066,2.6139,2.6174,2.6191,2.6268,2.6294,2.6385,2.6401,2.6462,2.6581,2.6631,2.6673,2.6764,2.6772,2.6785,2.6817,2.6869,2.6878,2.6886,2.6918,2.6929,2.6793,2.6793,2.6793,0,2.5914,2.6015,2.6052,2.6123,2.6167,2.6187,2.6259,2.6305,2.6397,2.6427,2.6415,2.6565,2.6615,2.6721,2.6744,2.6777,2.6797,2.6775,2.6874,2.6882,2.6891,2.6921,2.6933,2.6794,2.6794,2.6794,2.6794,0,2.6031,2.6102,2.615,2.6237,2.6287,2.6358,2.6405,2.6452,2.647,2.6507,2.6599,2.6659,2.674,2.6767,2.6786,2.6877,2.6869,2.6865,2.6843,2.6902,2.6931,2.6943,2.6795,2.6795,2.6795,2.6795,0,0,2.6101,2.6208,2.6224,2.6264,2.6347,2.6402,2.6474,2.6552,2.6591,2.6654,2.6715,2.6816,2.6813,2.686,2.6885,2.6931,2.6998,2.6922,2.6924,2.6932,2.7101,2.7102,2.7115,2.7005,2.7007,2.7009,2.7095,0,2.6181,2.6308,2.6344,2.6452,2.6517,2.6538,2.6601,2.6659,2.6696,2.6757,2.6798,2.6868,2.686,2.6888,2.6935,2.698,2.7032,2.6974,2.7062,2.7065,2.7041,2.713,2.7132,2.7209,2.7106,2.7108,2.711,0,2.629,2.6354,2.6469,2.6543,2.6572,2.6628,2.6702,2.676,2.6826,2.685,2.6902,2.6923,2.7,2.6975,2.7081,2.7041,2.7079,2.7107,2.7111,2.7119,2.7089,2.7139,2.7235,2.7246,2.7128,2.7127,2.7126,0,2.6327,2.6443,2.6526,2.656,2.6649,2.6687,2.6726,2.6791,2.6835,2.6901,2.693,2.7004,2.7044,2.7101,2.7141,2.712,2.7244,2.7223,2.7265,2.7264,2.7289,2.7286,2.739,2.7317,2.7316,2.7316,2.7316,0,2.6412,2.6481,2.6544,2.6595,2.6673,2.6714,2.679,2.683,2.6888,2.6947,2.6971,2.7026,2.7077,2.714,2.7173,2.7255,2.7274,2.7295,2.7302,2.7292,2.7289,2.7316,2.7311,2.7319,2.7319,2.7318,2.7317,0,2.6465,2.6511,2.6603,2.6679,2.67,2.6754,2.682,2.6871,2.6909,2.6984,2.7004,2.7064,2.7139,2.7185,2.7281,2.7303,2.7393,2.74,2.737,2.7373,2.7413,2.7408,2.7536,2.7555,2.747,2.7471,2.7472,0,2.6515,2.6568,2.6651,2.6692,2.6731,2.6797,2.6843,2.6885,2.6932,2.7012,2.7053,2.7129,2.7192,2.7311,2.7364,2.7437,2.7445,2.7485,2.7456,2.7443,2.7443,2.7439,2.7444,2.7489,2.7489,2.749,2.749,0,2.6598,2.6618,2.6682,2.6754,2.6807,2.6866,2.6925,2.6958,2.7011,2.7062,2.7139,2.7188,2.7285,2.736,2.7438,2.748,2.7494,2.7499,2.7513,2.7502,2.7481,2.7491,2.7381,2.7496,2.7495,2.7495,2.7495,2.7494,2.665,2.6698,2.6763,2.6834,2.6883,2.6938,2.6989,2.7033,2.7097,2.7179,2.7201,2.7281,2.7347,2.7453,2.7496,2.7559,2.7553,2.7573,2.7578,2.7582,2.7582,2.7473,2.7574,2.7574,2.7574,2.7574,2.7574,0,2.6733,2.6776,2.6841,2.6922,2.6977,2.6986,2.7052,2.7098,2.7168,2.7228,2.7289,2.7377,2.7451,2.7509,2.7585,2.7625,2.7633,2.7643,2.7639,2.7649,2.7583,2.7563,2.7635,2.7635,2.7635,2.7635,2.7635,2.7635,2.6782,2.6864,2.6891,2.6998,2.7041,2.7118,2.7155,2.7206,2.7254,2.735,2.7411,2.7449,2.7508,2.7589,2.7657,2.7672,2.7698,2.7706,2.7723,2.766,2.7653,2.7647,2.7628,2.7712,2.7712,2.7783,2.7784,2.7784]},{"header":{"parameterUnit":"m.s-1","parameterCategory":1,"la1":30.2991,"la2":30.254,"lo1":-89.0895,"lo2":-89.0444,"dy":0.0017,"dx":0.0017,"nx":28,"ny":28,"refTime":"2024-08-13T03:00:00:Z","depth":0,"parameterNumber":3,"parameterNumberName":"V-component_of_WINDS"},"data":[0,0,0,0,0,0,0,0,0,0,0,0,0,0,0,0,0,0,0,0,0,0,0,0,0,0,0,0,0,0,0,0,0,0,0,0,0,0,0,0,0,0,0,0,0,0,0,0,0,0,0,0,0,0,0,0,0,0,1.7819,1.7819,0,1.7858,1.7859,1.7859,1.7851,1.785,1.7849,1.7849,1.7888,1.789,1.7891,0,0,0,0,0,0,0,0,0,0,0,0,0,1.7734,1.7736,1.7818,1.7819,1.7819,1.7858,1.7859,1.7859,1.7851,1.785,1.7849,1.7848,1.7887,1.789,1.7892,0,0,0,0,0,0,0,0,0,0,0,0,0,1.7772,1.7736,1.7818,1.782,1.7821,1.7858,1.7859,1.7859,1.7851,1.785,1.7849,1.7848,1.7887,1.7889,1.7892,1.793,0,0,1.79,1.7901,0,0,0,0,0,0,0,0,1.777,1.7775,1.7819,1.782,1.7821,1.7848,1.7843,1.7883,1.7851,1.784,1.7849,1.7847,1.7876,1.7879,1.7889,1.7932,1.7933,1.79,1.7902,1.7903,1.7903,0,0,0,0,0,0,0,1.7767,1.7773,1.7834,1.782,1.7821,1.7818,1.7822,1.7851,1.7863,1.784,1.784,1.7845,1.7876,1.7886,1.789,1.7934,1.79,1.7902,1.7904,1.7905,1.8009,1.801,0,0,0,0,0,0,1.7764,1.7771,1.7833,1.7835,1.7792,1.7821,1.7825,1.7841,1.7863,1.7865,1.7846,1.7844,1.7883,1.7887,1.7891,1.7937,1.7903,1.7905,1.7907,1.8008,1.8009,1.801,0,0,0,0,0,0,1.7762,1.777,1.7831,1.7803,1.7811,1.7823,1.7841,1.7842,1.7853,1.7867,1.7869,1.7854,1.7882,1.7887,1.792,1.7938,1.7906,1.7909,1.8006,1.8008,1.801,1.8028,0,0,0,0,0,0,1.776,1.7769,1.7784,1.7804,1.7812,1.786,1.7842,1.7844,1.7857,1.7856,1.7876,1.7878,1.7881,1.7916,1.7923,1.7941,1.7911,1.8005,1.8007,1.8009,1.8026,1.803,1.8034,0,0,0,0,0,1.7757,1.7787,1.7785,1.7792,1.7831,1.7861,1.7866,1.787,1.7859,1.7874,1.7883,1.7877,1.7935,1.792,1.7927,1.7946,1.8004,1.8006,1.8009,1.8024,1.8029,1.8034,0,0,0,0,0,0,1.7769,1.779,1.7787,1.7825,1.7842,1.786,1.7879,1.7876,1.7895,1.7893,1.7897,1.7901,1.7935,1.7944,1.7926,1.7984,1.7968,1.7972,1.7977,1.7982,1.7986,1.7983,1.7913,0,0,0,0,0,1.7776,1.7799,1.7816,1.7848,1.7856,1.7866,1.7879,1.7881,1.7898,1.7905,1.7916,1.7932,1.7954,1.7968,1.7989,1.8027,1.8031,1.8044,1.8048,1.8051,1.8055,1.8075,1.8081,1.8019,1.8019,1.8019,0,0,1.7791,1.7805,1.782,1.7851,1.7863,1.7887,1.7872,1.7897,1.7914,1.7908,1.794,1.7949,1.7967,1.8003,1.8019,1.8011,1.8073,1.8055,1.8057,1.8059,1.8079,1.8084,1.809,1.8021,1.8021,1.8021,0,0,1.783,1.7843,1.7871,1.7884,1.7904,1.7911,1.7917,1.7936,1.7942,1.7974,1.797,1.799,1.8027,1.8041,1.8052,1.8096,1.8092,1.8103,1.8124,1.8144,1.8148,1.8153,1.8168,1.8174,1.8106,1.8106,1.8106,0,1.7846,1.7882,1.7886,1.7912,1.7925,1.7921,1.7949,1.7961,1.7987,1.7996,1.7987,1.8034,1.8046,1.8084,1.8095,1.8105,1.8112,1.81,1.8147,1.8152,1.8156,1.8171,1.8176,1.8107,1.8107,1.8107,1.8107,0,1.79,1.7925,1.7944,1.797,1.7985,1.8012,1.802,1.8035,1.8035,1.8042,1.8074,1.8089,1.8112,1.8122,1.8122,1.816,1.8155,1.8147,1.8131,1.8163,1.8177,1.8182,1.8109,1.8109,1.8108,1.8108,0,0,1.7948,1.7975,1.7982,1.7993,1.8015,1.8034,1.806,1.8083,1.8096,1.8114,1.8136,1.8168,1.816,1.8174,1.8175,1.8193,1.8226,1.8183,1.8183,1.819,1.8269,1.8274,1.8281,1.8223,1.8224,1.8225,1.8267,0,1.7989,1.8036,1.804,1.8082,1.8104,1.8101,1.8123,1.8139,1.8146,1.8166,1.8173,1.8196,1.8185,1.8193,1.821,1.8218,1.8242,1.8216,1.8243,1.8244,1.8239,1.8288,1.8295,1.8333,1.8272,1.8273,1.8274,0,1.8043,1.8062,1.8107,1.8125,1.8134,1.8155,1.8177,1.8196,1.8213,1.8217,1.8232,1.8231,1.8257,1.824,1.8277,1.8258,1.827,1.8276,1.8278,1.828,1.8261,1.8292,1.8346,1.8351,1.8283,1.8282,1.8281,0,1.8073,1.811,1.8142,1.8151,1.8174,1.8188,1.8198,1.8214,1.8228,1.8246,1.8255,1.8277,1.8288,1.8305,1.831,1.8297,1.8346,1.8329,1.8349,1.8349,1.836,1.8359,1.8416,1.8368,1.8367,1.8367,1.8367,0,1.8118,1.8145,1.8156,1.8175,1.8205,1.8209,1.8239,1.8248,1.8262,1.8283,1.828,1.83,1.8305,1.8325,1.8329,1.8358,1.8363,1.8367,1.8368,1.8367,1.8367,1.8375,1.8372,1.8369,1.8368,1.8368,1.8368,0,1.8157,1.8165,1.8199,1.8217,1.8222,1.8244,1.8259,1.8277,1.8284,1.831,1.8316,1.8327,1.835,1.8357,1.8385,1.8387,1.8422,1.842,1.8416,1.8416,1.8436,1.8434,1.85,1.8509,1.8455,1.8455,1.8456,0,1.8185,1.8206,1.8227,1.8241,1.8251,1.8273,1.8287,1.8292,1.8307,1.8328,1.8344,1.8367,1.8386,1.8423,1.8433,1.8454,1.8453,1.8475,1.8456,1.8455,1.8453,1.8452,1.8454,1.8478,1.8479,1.8479,1.8479,0,1.8235,1.8238,1.8258,1.828,1.8297,1.8315,1.8332,1.8343,1.835,1.8367,1.8391,1.8405,1.8434,1.8457,1.8479,1.8488,1.8485,1.8485,1.8491,1.8491,1.8488,1.8489,1.8426,1.8484,1.8483,1.8483,1.8483,1.8483,1.8269,1.8287,1.8305,1.8328,1.8341,1.8357,1.8375,1.8384,1.8404,1.8428,1.843,1.8456,1.8472,1.8501,1.8511,1.8532,1.8525,1.8534,1.8536,1.8538,1.8539,1.8484,1.8535,1.8535,1.8535,1.8535,1.8535,0,1.8318,1.8329,1.835,1.8374,1.8392,1.8388,1.8406,1.8421,1.8444,1.846,1.8479,1.8506,1.8529,1.854,1.8562,1.8576,1.8575,1.8582,1.8581,1.8583,1.8544,1.8537,1.8582,1.8582,1.8582,1.8582,1.8582,1.8582,1.8346,1.8376,1.8381,1.8418,1.8429,1.8455,1.8466,1.848,1.8492,1.8524,1.8542,1.855,1.8564,1.8587,1.8607,1.8609,1.8618,1.8625,1.8627,1.859,1.8586,1.8581,1.8574,1.8627,1.8627,1.8664,1.8664,1.8665]}]]